Weather History for Lancaster, OH

Change the Weather History Date:

Tuesday, March 12, 2013

  Actual Average Record
Temperature  
Mean Temperature 37 °F -  
Max Temperature 41 °F 47 °F 77 °F (1990)
Min Temperature 33 °F 27 °F 1 °F (1999)
Degree Days  
Heating Degree Days 28    
Moisture  
Dew Point 30 °F    
Average Humidity 78    
Maximum Humidity 89    
Minimum Humidity 65    
Precipitation  
Precipitation 0.04 in - - ()
Sea Level Pressure  
Sea Level Pressure 29.96 in    
Wind  
Wind Speed 9 mph (West)    
Max Wind Speed 14 mph    
Max Gust Speed 22 mph    
Visibility 8 miles    
Events Snow    
Averages and records for this station are not official NWS values.
T = Trace of Precipitation, MM = Missing Value Source: NWS Daily Summary

Daily Weather History Graph

Daily Weather History Graph

Search for Another Location

Airport:

Trip Planner

Search our weather history database for the weather conditions in past years. The results will help you decide how hot, cold, wet, or windy it might be!

Date:

Astronomy

Mar. 12, 2013 Rise Set
Actual Time 7:46 AM EDT 7:34 PM EDT
Civil Twilight 7:19 AM EDT 8:01 PM EDT
Nautical Twilight 6:48 AM EDT 8:32 PM EDT
Astronomical Twilight 6:16 AM EDT 9:04 PM EDT
Moon 7:52 AM EDT (3/12) 8:48 PM EDT (3/12)
Length of Visible Light 12h 42m
Length of Day
11h 48m
New Moon, 1% of the Moon is Illuminated
Mar 12
New Moon
Mar 19
First Quarter
Mar 27
Full
Apr 3
Last Quarter
Apr 10
New

Hourly Weather History & Observations

Time (EDT) Temp. Windchill Dew Point Humidity Pressure Visibility Wind Dir Wind Speed Gust Speed Precip Events Conditions
12:44 AM 41.0 °F 37.1 °F 33.8 °F 76% 29.83 in 10.0 mi West 5.8 mph - N/A   Overcast
12:53 AM 41.0 °F 35.8 °F 34.0 °F 76% 29.83 in 10.0 mi West 8.1 mph - N/A   Overcast
1:29 AM 39.2 °F 33.6 °F 33.8 °F 81% 29.83 in 10.0 mi West 8.1 mph - N/A   Mostly Cloudy
1:53 AM 39.0 °F 32.8 °F 33.1 °F 79% 29.85 in 10.0 mi West 9.2 mph - N/A   Mostly Cloudy
2:19 AM 37.4 °F 30.3 °F 32.0 °F 81% 29.85 in 10.0 mi West 10.4 mph - N/A   Mostly Cloudy
2:29 AM 37.4 °F 31.4 °F 32.0 °F 81% 29.85 in 10.0 mi West 8.1 mph - N/A   Mostly Cloudy
2:53 AM 37.9 °F 31.5 °F 32.0 °F 79% 29.87 in 10.0 mi West 9.2 mph - N/A   Overcast
3:14 AM 37.4 °F 32.1 °F 32.0 °F 81% 29.87 in 10.0 mi West 6.9 mph - N/A   Overcast
3:53 AM 37.9 °F 32.1 °F 30.9 °F 76% 29.88 in 10.0 mi West 8.1 mph - N/A   Overcast
4:51 AM 35.6 °F 29.2 °F 30.2 °F 81% 29.88 in 10.0 mi West 8.1 mph - N/A   Overcast
4:53 AM 36.0 °F 29.0 °F 30.0 °F 79% 29.89 in 10.0 mi West 9.2 mph - N/A   Overcast
5:00 AM 37.4 °F 31.4 °F 30.2 °F 75% 29.88 in 10.0 mi West 8.1 mph - N/A   Overcast
5:53 AM 36.0 °F 29.0 °F 30.0 °F 79% 29.90 in 10.0 mi West 9.2 mph - N/A   Overcast
6:53 AM 34.0 °F 28.0 °F 30.0 °F 85% 29.94 in 5.0 mi West 6.9 mph 18.4 mph 0.00 in Snow Light Snow
7:02 AM 33.8 °F 25.8 °F 30.2 °F 87% 29.92 in 8.0 mi West 10.4 mph - 0.00 in   Overcast
7:38 AM 33.8 °F 27.7 °F 30.2 °F 87% 29.93 in 9.0 mi West 6.9 mph - 0.00 in   Overcast
7:53 AM 34.0 °F 28.8 °F 30.0 °F 85% 29.95 in 8.0 mi West 5.8 mph - 0.00 in   Overcast
8:37 AM 35.6 °F 31.7 °F 28.4 °F 75% 29.94 in 9.0 mi West 4.6 mph - N/A   Overcast
8:53 AM 35.1 °F 28.6 °F 28.9 °F 78% 29.96 in 8.0 mi West 8.1 mph - N/A   Overcast
9:53 AM 35.1 °F 27.4 °F 28.9 °F 78% 29.98 in 8.0 mi West 10.4 mph - N/A   Overcast
10:43 AM 35.6 °F 28.6 °F 28.4 °F 75% 29.97 in 10.0 mi WSW 9.2 mph - N/A   Overcast
10:53 AM 35.1 °F 27.9 °F 28.9 °F 78% 29.99 in 10.0 mi West 9.2 mph - N/A   Overcast
11:03 AM 35.6 °F 26.6 °F 28.4 °F 75% 29.97 in 7.0 mi West 13.8 mph 19.6 mph N/A   Overcast
11:53 AM 36.0 °F 27.1 °F 28.9 °F 76% 30.00 in 10.0 mi West 13.8 mph 21.9 mph N/A   Overcast
12:53 PM 37.9 °F 30.0 °F 28.9 °F 70% 29.98 in 10.0 mi West 12.7 mph - N/A   Overcast
1:40 PM 35.6 °F 27.1 °F 28.4 °F 75% 29.98 in 9.0 mi WSW 12.7 mph 21.9 mph N/A   Overcast
1:53 PM 37.0 °F 28.5 °F 28.9 °F 73% 30.01 in 10.0 mi WSW 13.8 mph 20.7 mph N/A   Overcast
2:36 PM 37.4 °F 28.9 °F 26.6 °F 65% 29.98 in 10.0 mi West 13.8 mph 21.9 mph N/A   Overcast
2:53 PM 37.0 °F 28.9 °F 27.0 °F 67% 29.99 in 10.0 mi WSW 12.7 mph 18.4 mph N/A   Overcast
3:53 PM 37.0 °F 29.3 °F 27.0 °F 67% 29.99 in 10.0 mi West 11.5 mph - N/A   Overcast
4:09 PM 37.4 °F 29.8 °F 28.4 °F 70% 29.97 in 10.0 mi West 11.5 mph 19.6 mph N/A   Overcast
4:19 PM 37.4 °F 29.3 °F 26.6 °F 65% 29.97 in 10.0 mi West 12.7 mph - N/A   Overcast
4:31 PM 37.4 °F 29.3 °F 26.6 °F 65% 29.97 in 10.0 mi West 12.7 mph 20.7 mph N/A   Overcast
4:53 PM 37.9 °F 30.0 °F 27.0 °F 65% 29.99 in 10.0 mi WSW 12.7 mph 18.4 mph N/A   Overcast
5:53 PM 37.9 °F 29.6 °F 27.0 °F 65% 30.00 in 10.0 mi WSW 13.8 mph - N/A   Overcast
6:53 PM 37.9 °F 32.1 °F 28.0 °F 68% 30.01 in 10.0 mi WSW 8.1 mph - N/A   Overcast
7:53 PM 37.0 °F 34.5 °F 28.0 °F 70% 30.01 in 10.0 mi SW 3.5 mph - N/A   Overcast
8:53 PM 36.0 °F 32.1 °F 28.0 °F 73% 30.02 in 10.0 mi SSW 4.6 mph - N/A   Overcast
9:53 PM 37.0 °F 33.3 °F 30.0 °F 76% 30.03 in 8.0 mi North 4.6 mph - 0.00 in Snow Light Snow
10:14 PM 33.8 °F 27.0 °F 30.2 °F 87% 30.02 in 2.5 mi NW 8.1 mph 20.7 mph 0.01 in Snow Light Snow
10:16 PM 33.8 °F 26.4 °F 30.2 °F 87% 30.02 in 2.0 mi WNW 9.2 mph - 0.01 in Snow Light Snow
10:18 PM 33.8 °F 26.4 °F 30.2 °F 87% 30.03 in 1.8 mi WNW 9.2 mph - 0.02 in Snow Light Snow
10:30 PM 33.8 °F 26.4 °F 30.2 °F 87% 30.02 in 2.0 mi WSW 9.2 mph - 0.03 in Snow Light Snow
10:34 PM 33.8 °F 26.4 °F 30.2 °F 87% 30.02 in 3.0 mi WSW 9.2 mph - 0.04 in Snow Light Snow
10:43 PM 33.8 °F 27.7 °F 30.2 °F 87% 30.02 in 3.0 mi WSW 6.9 mph - 0.04 in Snow Light Snow
10:53 PM 34.0 °F 27.2 °F 30.9 °F 89% 30.04 in 5.0 mi WSW 8.1 mph - 0.04 in Snow Light Snow
11:06 PM 33.8 °F 27.7 °F 30.2 °F 87% 30.01 in 8.0 mi SW 6.9 mph - 0.00 in   Mostly Cloudy
11:53 PM 33.1 °F - 30.0 °F 89% 30.02 in 10.0 mi Calm Calm - 0.00 in   Overcast